{"data":{"norad_id":59033,"epoch":"2026-05-25T04:01:39.531360Z","epoch_age_seconds":53813,"freshness":"FRESH","line1":"1 59033U 24038L   26145.16781865  .00000369  00000+0  22941-4 0  9996","line2":"2 59033  43.0019 311.7386 0001183 272.9167  87.1549 15.27574223126556","mean_motion":15.27574223,"eccentricity":0.0001183,"inclination_deg":43.0019,"raan_deg":311.7386,"arg_perigee_deg":272.9167,"mean_anomaly_deg":87.1549,"bstar":2.2941e-5,"rev_number":12655,"period_min":94.267105212864,"perigee_km":482.25471414886,"apogee_km":483.878074872,"semimajor_km":6861.2033945104,"source":"CELESTRAK","updated_at":"2026-05-25T13:38:18.824106Z"}}